When you browse on this site, cookies collect data to enhance your experience and personalize the content and advertising you see.
Visit our Privacy Policy to learn more. By continuing to use the site, you agree to this use of cookies and data.

Hourly Weather Aahalden

Today, 9 July, Thursday

Time Temperature Precipitation Wind Pressure Humidity
00:00 +16°C° 0 mm 1 mps 712 mmHg 86%
01:00 +16°C° 0 mm 1 mps 712 mmHg 85%
02:00 +15°C° 0 mm 1 mps 712 mmHg 84%
03:00 +15°C° 0 mm 1 mps 712 mmHg 82%
04:00 +15°C° 0 mm 1 mps 711 mmHg 81%
05:00 +18°C° 0 mm 1 mps 712 mmHg 77%
06:00 +17°C° 0 mm 0 mps 712 mmHg 73%
07:00 +19°C° 0 mm 0 mps 712 mmHg 69%
08:00 +21°C° 0 mm 0 mps 712 mmHg 63%
09:00 +25°C° 0 mm 1 mps 712 mmHg 56%
10:00 +27°C° 0 mm 1 mps 713 mmHg 49%
11:00 +28°C° 0 mm 1 mps 712 mmHg 45%
12:00 +29°C° 0 mm 2 mps 712 mmHg 41%
13:00 +30°C° 0 mm 2 mps 712 mmHg 38%
14:00 +30°C° 0 mm 2 mps 712 mmHg 38%
15:00 +30°C° 0 mm 2 mps 712 mmHg 39%
16:00 +30°C° 0 mm 2 mps 711 mmHg 40%
17:00 +29°C° 0 mm 2 mps 711 mmHg 49%
18:00 +27°C° 0 mm 1 mps 711 mmHg 58%
19:00 +26°C° 0 mm 1 mps 710 mmHg 67%
20:00 +24°C° 0 mm 1 mps 711 mmHg 71%
21:00 +22°C° 0 mm 1 mps 711 mmHg 75%
22:00 +20°C° 0 mm 1 mps 711 mmHg 79%
23:00 +20°C° 0 mm 1 mps 711 mmHg 79%

Tomorrow, 10 July, Friday

Time Temperature Precipitation Wind Pressure Humidity
00:00 +20°C° 0 mm 1 mps 711 mmHg 78%
01:00 +19°C° 0 mm 1 mps 710 mmHg 77%
02:00 +19°C° 0 mm 1 mps 710 mmHg 76%
03:00 +19°C° 0 mm 1 mps 710 mmHg 76%
04:00 +19°C° 0 mm 1 mps 710 mmHg 75%
05:00 +20°C° 0 mm 1 mps 710 mmHg 73%
06:00 +21°C° 0 mm 1 mps 710 mmHg 71%
07:00 +21°C° 0 mm 0 mps 710 mmHg 69%
08:00 +24°C° 0 mm 1 mps 710 mmHg 63%
09:00 +26°C° 0 mm 1 mps 710 mmHg 58%
10:00 +27°C° 0 mm 1 mps 710 mmHg 52%
11:00 +28°C° 0.1 mm 2 mps 710 mmHg 52%
12:00 +29°C° 0.1 mm 3 mps 710 mmHg 51%
13:00 +29°C° 0.1 mm 3 mps 710 mmHg 50%
14:00 +28°C° 1.8 mm 3 mps 710 mmHg 61%
15:00 +26°C° 1.8 mm 3 mps 710 mmHg 73%
16:00 +24°C° 1.8 mm 3 mps 709 mmHg 84%
17:00 +23°C° 3.2 mm 2 mps 709 mmHg 88%
18:00 +21°C° 3.2 mm 2 mps 709 mmHg 91%
19:00 +21°C° 3.2 mm 1 mps 710 mmHg 94%
20:00 +20°C° 1.2 mm 1 mps 710 mmHg 94%
21:00 +19°C° 1.2 mm 1 mps 710 mmHg 95%
22:00 +19°C° 1.2 mm 1 mps 711 mmHg 95%
23:00 +18°C° 1.9 mm 1 mps 711 mmHg 96%

Day after tomorrow, 11 July, Saturday

Time Temperature Precipitation Wind Pressure Humidity
00:00 +18°C° 1.9 mm 1 mps 711 mmHg 96%
01:00 +16°C° 1.9 mm 1 mps 711 mmHg 96%
02:00 +16°C° 1.5 mm 1 mps 711 mmHg 96%
03:00 +15°C° 1.5 mm 0 mps 711 mmHg 96%
04:00 +14°C° 1.5 mm 0 mps 711 mmHg 96%
05:00 +14°C° 1.5 mm 0 mps 711 mmHg 96%
06:00 +14°C° 1.5 mm 0 mps 711 mmHg 96%
07:00 +14°C° 1.5 mm 0 mps 711 mmHg 96%
08:00 +15°C° 1.3 mm 0 mps 712 mmHg 93%
09:00 +16°C° 1.3 mm 0 mps 712 mmHg 89%
10:00 +17°C° 1.3 mm 0 mps 713 mmHg 86%
11:00 +19°C° 0.8 mm 1 mps 713 mmHg 84%
12:00 +20°C° 0.8 mm 1 mps 713 mmHg 83%
13:00 +19°C° 0.8 mm 2 mps 713 mmHg 81%
14:00 +19°C° 0.9 mm 2 mps 713 mmHg 82%
15:00 +19°C° 0.9 mm 2 mps 713 mmHg 82%
16:00 +19°C° 0.9 mm 2 mps 713 mmHg 83%
17:00 +18°C° 0.6 mm 2 mps 714 mmHg 85%
18:00 +19°C° 0.6 mm 1 mps 714 mmHg 87%
19:00 +18°C° 0.6 mm 1 mps 714 mmHg 90%
20:00 +16°C° 0 mm 1 mps 714 mmHg 91%
21:00 +14°C° 0 mm 1 mps 714 mmHg 92%
22:00 +13°C° 0 mm 1 mps 714 mmHg 93%
23:00 +12°C° 0 mm 1 mps 714 mmHg 93%

12 July, Sunday

Time Temperature Precipitation Wind Pressure Humidity
00:00 +12°C° 0 mm 1 mps 714 mmHg 94%
01:00 +11°C° 0 mm 1 mps 714 mmHg 95%
02:00 +11°C° 0 mm 1 mps 714 mmHg 95%
03:00 +10°C° 0 mm 1 mps 714 mmHg 95%
04:00 +10°C° 0 mm 1 mps 714 mmHg 94%
05:00 +11°C° 0 mm 1 mps 714 mmHg 93%
06:00 +12°C° 0 mm 1 mps 714 mmHg 91%
07:00 +13°C° 0 mm 1 mps 714 mmHg 90%
08:00 +15°C° 0 mm 1 mps 714 mmHg 81%
09:00 +17°C° 0 mm 2 mps 715 mmHg 72%
10:00 +19°C° 0 mm 2 mps 715 mmHg 63%
11:00 +20°C° 0 mm 3 mps 715 mmHg 58%
12:00 +21°C° 0 mm 3 mps 715 mmHg 53%
13:00 +22°C° 0 mm 3 mps 715 mmHg 48%
14:00 +24°C° 0 mm 3 mps 715 mmHg 49%
15:00 +23°C° 0 mm 4 mps 715 mmHg 50%
16:00 +23°C° 0 mm 4 mps 715 mmHg 52%
17:00 +21°C° 0 mm 3 mps 715 mmHg 58%
18:00 +20°C° 0 mm 3 mps 715 mmHg 65%
19:00 +19°C° 0 mm 2 mps 715 mmHg 72%
20:00 +17°C° 0 mm 2 mps 715 mmHg 78%
21:00 +15°C° 0 mm 2 mps 715 mmHg 83%
22:00 +13°C° 0 mm 1 mps 715 mmHg 89%
23:00 +13°C° 0 mm 1 mps 714 mmHg 90%

13 July, Monday

Time Temperature Precipitation Wind Pressure Humidity
00:00 +12°C° 0 mm 1 mps 714 mmHg 91%
01:00 +12°C° 0 mm 1 mps 714 mmHg 92%
02:00 +11°C° 0 mm 1 mps 714 mmHg 93%
03:00 +10°C° 0 mm 0 mps 714 mmHg 93%
04:00 +10°C° 0 mm 0 mps 713 mmHg 93%
05:00 +11°C° 0 mm 0 mps 713 mmHg 89%
06:00 +12°C° 0 mm 0 mps 714 mmHg 85%
07:00 +14°C° 0 mm 0 mps 714 mmHg 81%
08:00 +18°C° 0 mm 1 mps 714 mmHg 74%
09:00 +20°C° 0 mm 1 mps 714 mmHg 68%
10:00 +21°C° 0 mm 2 mps 714 mmHg 61%
11:00 +23°C° 0 mm 2 mps 714 mmHg 58%
12:00 +24°C° 0 mm 2 mps 714 mmHg 55%
13:00 +25°C° 0 mm 2 mps 713 mmHg 52%
14:00 +25°C° 0 mm 2 mps 713 mmHg 52%
15:00 +25°C° 0 mm 2 mps 713 mmHg 51%
16:00 +25°C° 0 mm 2 mps 713 mmHg 51%
17:00 +24°C° 0 mm 2 mps 712 mmHg 58%
18:00 +23°C° 0 mm 2 mps 712 mmHg 66%
19:00 +20°C° 0 mm 2 mps 712 mmHg 73%
20:00 +18°C° 0 mm 2 mps 712 mmHg 80%
21:00 +16°C° 0 mm 1 mps 712 mmHg 86%
22:00 +14°C° 0 mm 1 mps 712 mmHg 92%
23:00 +14°C° 0 mm 1 mps 711 mmHg 92%

14 July, Tuesday

Time Temperature Precipitation Wind Pressure Humidity
00:00 +14°C° 0 mm 1 mps 711 mmHg 92%
01:00 +13°C° 0 mm 1 mps 711 mmHg 92%
02:00 +12°C° 0 mm 0 mps 710 mmHg 92%
03:00 +11°C° 0 mm 0 mps 710 mmHg 92%
04:00 +11°C° 0 mm 0 mps 710 mmHg 92%
05:00 +12°C° 0 mm 0 mps 710 mmHg 89%
06:00 +14°C° 0 mm 0 mps 710 mmHg 86%
07:00 +15°C° 0 mm 0 mps 710 mmHg 82%
08:00 +18°C° 0 mm 0 mps 711 mmHg 74%
09:00 +22°C° 0 mm 1 mps 711 mmHg 66%
10:00 +24°C° 0 mm 1 mps 711 mmHg 58%
11:00 +25°C° 0 mm 1 mps 710 mmHg 54%
12:00 +27°C° 0 mm 1 mps 710 mmHg 49%
13:00 +28°C° 0 mm 1 mps 710 mmHg 45%
14:00 +28°C° 0 mm 1 mps 710 mmHg 45%
15:00 +28°C° 0 mm 1 mps 710 mmHg 46%
16:00 +27°C° 0 mm 1 mps 710 mmHg 47%
17:00 +26°C° 0.1 mm 1 mps 710 mmHg 55%
18:00 +25°C° 0.1 mm 1 mps 710 mmHg 63%
19:00 +23°C° 0.1 mm 1 mps 710 mmHg 71%
20:00 +22°C° 0.2 mm 1 mps 710 mmHg 76%
21:00 +20°C° 0.2 mm 1 mps 710 mmHg 81%
22:00 +18°C° 0.2 mm 1 mps 710 mmHg 86%
23:00 +18°C° 0 mm 1 mps 710 mmHg 86%
Show more